Location: Monteux
(44.0348°N, 4.9972°E)
Time: 15:57:12
(UTC+00:00)

CZ-2D R/B - Pass Details

Date: 30 November 2020
Orbit: 521 x 538 km, 97.4° (Epoch: 17 January)

Event Time Altitude Azimuth Distance (km) Brightness Sun altitude
Rises 17:59:55 0° 168° (SSE) 2,644 6.8 -20.4°
Reaches altitude 10° 18:02:00 10° 170° (S) 1,763 5.9 -20.7°
Maximum altitude 18:05:49 82° 258° (WSW) 540 3.2 -21.4°
Drops below altitude 10° 18:09:41 10° 346° (NNW) 1,789 6.0 -22.1°
Sets 18:11:48 0° 347° (NNW) 2,687 6.9 -22.5°
